Weather in Habarana

Sri Lanka     8°02′26″N   80°45′22″E
temp.,
°C
wind,
m/s
gust,
m/s
humid.,
%
clouds,
%
prec.,
mm/h
press.,
hPa
HPBL,
m
6 may, thu
thu623:30+24se1194100 0.3 101019
02:30+24se119592 0.0 100815
05:30+23se119683 0.0 100918
08:30+28ese247550 0.0 1011575
11:30+33ese345248 0.0 10101819
14:30+31ese2562100 0.1 1007343
17:30+29ese376571 0.2 1007315
20:30+25ese268665 0.3 1010189
7 may, fri
fri723:30+24se129324 0.9 101045
02:30+24se119597 0.0 100812
05:30+23se11955 0.0 101012
08:30+28ese237541 0.0 1011601
11:30+33e235154 0.0 10101897
14:30+29ne2570100 0.3 1007144
17:30+27e497863 2.0 1008263
20:30+24se2492100 4.1 1011113
8 may, sat
sat823:30+24ese259372 5.5 1010147
02:30+23sw1192100 0.0 100922
05:30+23wsw249651 0.0 1010137
08:30+25wsw138389 0.0 1012222
11:30+31wsw1156100 0.0 1009986
14:30+33wnw225044 0.0 10061775
17:30+29nne2368100 0.7 100785
20:30+25ene118998 4.8 101011
9 may, sun
sun923:30+25sse119223 4.9 101013
02:30+24sw119384 0.0 100729
05:30+24sw119465 0.0 100914
08:30+27wsw117852 0.0 1011416
11:30+32w225950 0.1 10091539
14:30+30w336636 1.1 1006685
17:30+27w2484100 4.8 1007114
20:30+25wsw269382 1.4 1009172
10 may, mon
mon1023:30+24wsw249570 1.4 1009132
02:30+23wsw2596100 0.0 1007189
05:30+23wsw229513 0.0 100845
08:30+27wsw367759 0.0 1010542
11:30+32wsw4459100 0.0 10091546
14:30+31w556199 0.1 10061100
17:30+28wsw5975100 0.5 1007659
20:30+26wsw3984100 0.3 1009415